www.pogodaiklimat.ru

Погода и климат >> Архив погоды >> Иран >> Shiraz


ПОГОДА в Shiraz

  • Прогноз погоды в Shiraz
  • Монитор погоды в Shiraz
  • Климат города

АРХИВ ПОГОДЫ в Shiraz

Время (UTC), дата Ветер
(напр.,м/с)
 
Видим.   Явления Облачность Т
(С)
Тd
(С)
f
(%)
Тe
(С)
Тes
(С)
Комфортность P
(гПа)
Po
(гПа)
Тmin
(С)
Tmax
(С)
R
(мм)
R24
(мм)
S
(см)
03 8.08 штиль 0 10 км ясно +21.4 +7.4 40 +22 +24 комфорт 997.4 846.1 +21.2
06 8.08 штиль 0 10 км ясно +33.4 +1.4 13 +30 +49 жарко 995.9 846.7
09 8.08 СВ 2 10 км ясно +36.2 -1.1 9 +32 +53 опасность
солнечного
удара
994.0 845.3
12 8.08 В 4 10 км ясно +38.2 -7.2 5 +34 +40 очень
жарко
993.8 843.9
15 8.08 штиль 0 10 км ясно +37.0 -4.5 7 +33 +33 жарко 994.2 843.4 +38.4
18 8.08 штиль 0 10 км ясно +31.0 -0.5 13 +28 +28 жарко 994.3 844.9
21 8.08 СВ 4 10 км ясно +30.4 -2.1 12 +27 +27 жарко 994.1 845.2
00 9.08 СЗ 2 10 км ясно +24.6 +3.4 25 +24 +24 комфорт 996.0 846.1
03 9.08 ЮЗ 2 10 км 3/1 1200 м
[Cu hum Ac trans]
+23.0 +4.1 29 +23 +24 комфорт 998.5 847.7 +22.2
06 9.08 штиль 0 10 км ясно +33.0 +0.4 12 +30 +49 жарко 998.3 848.3
09 9.08 нст 2 10 км ясно +37.0 -1.6 9 +33 +54 опасность
солнечного
удара
996.3 847.3
12 9.08 ЮЗ 3 12 км 1/1 1350 м
[Sc diur, vesp]
+37.8 -4.0 7 +34 +40 очень
жарко
995.8 845.7
15 9.08 Ю 2 12 км 1/1 1200 м
[Sc diur, vesp]
+36.4 -3.4 8 +32 +32 жарко 995.7 844.9 +38.6
18 9.08 штиль 0 12 км 1/1 1200 м
[Sc diur, vesp]
+31.4 +8.6 24 +30 +30 жарко 996.2 846.9
21 9.08 СЗ 2 12 км ясно +29.6 +7.1 24 +28 +28 жарко 996.2 847.3
00 10.08 штиль 0 12 км ясно +27.4 +7.1 28 +27 +27 жарко 996.6 847.3
03 10.08 штиль 0 12 км ясно +25.2 +8.6 35 +26 +27 жарко 998.8 848.5 +21.4
06 10.08 штиль 0 8000 м мгла ясно +33.2 +9.1 23 +32 +51 опасность
солнечного
удара
998.7 849.1
09 10.08 ЮЗ 2 10 км 1/1 1200 м
[Cu hum]
+37.6 +6.0 14 +35 +53 опасность
солнечного
удара
996.3 847.5
12 10.08 Ю 2 10 км 1/1 1200 м
[Cu hum]
+39.0 -2.0 8 +35 +43 очень
жарко
994.4 845.4
15 10.08 З 4 10 км ясно +35.8 +8.4 19 +34 +34 очень
жарко
995.2 845.2 +39.8
18 10.08 З 3 6000 м пыльный позёмок ясно +32.0 +11.0 28 +32 +32 жарко 996.1 847.1
21 10.08 СЗ 4 7000 м мгла ясно +29.2 +13.5 38 +31 +31 жарко 995.8 847.3
00 11.08 З 2 8000 м мгла ясно +24.4 +12.8 48 +26 +26 жарко 996.6 847.2
03 11.08 штиль 0 10 км ясно +25.4 +11.2 41 +27 +28 жарко 998.1 847.9 +22.2
06 11.08 В 2 10 км ясно +34.4 +3.7 15 +32 +46 жарко 998.2 848.8
09 11.08 СВ 3 12 км 1/1 1000 м
[Cu hum]
+37.2 -7.6 5 +33 +48 жарко 997.3 847.8
12 11.08 С 2 15 км ясно +38.4 -10.9 4 +34 +43 очень
жарко
995.7 845.6
15 11.08 СВ 2 15 км ясно +36.2 -9.1 5 +32 +32 жарко 995.8 845.4 +39.2
18 11.08 С 2 15 км ясно +33.6 -6.5 7 +29 +29 жарко 995.7 846.8
21 11.08 штиль 0 15 км ясно +29.2 -5.7 10 +26 +26 жарко 997.3 847.8
00 12.08 штиль 0 12 км ясно +24.2 +0.6 21 +23 +23 комфорт 998.5 848.1
03 12.08 штиль 0 12 км 1/0
[Ci fib]
+22.8 +6.0 34 +23 +25 комфорт 999.8 848.6 +19.8
06 12.08 ЮВ 2 12 км 1/0
[Ci fib]
+34.0 -3.1 9 +30 +44 жарко 998.1 848.8
09 12.08 ЮВ 2 12 км ясно +37.0 -4.6 7 +33 +53 опасность
солнечного
удара
996.0 846.7
12 12.08 СВ 4 12 км ясно +37.6 -4.6 7 +33 +39 жарко 995.2 845.0
15 12.08 В 2 12 км ясно +36.0 -1.6 9 +32 +32 жарко 993.7 843.1 +39.2
18 12.08 СВ 6 12 км ясно +33.8 -1.6 10 +30 +30 жарко 993.2 844.7
21 12.08 штиль 0 12 км ясно +27.4 +2.4 20 +26 +26 жарко 993.7 844.5
00 13.08 В 2 12 км ясно +28.8 +2.0 18 +27 +27 жарко 993.1 844.4
03 13.08 штиль 0 10 км ясно +24.2 +5.0 29 +24 +26 комфорт 995.6 845.3 +22.0
06 13.08 ЮВ 2 6000 м мгла ясно +32.8 +5.6 18 +31 +44 жарко 994.6 845.9
09 13.08 В 4 10 км ясно +36.2 +3.7 13 +33 +47 жарко 993.5 844.2
12 13.08 нст 2 12 км ясно +38.8 +1.1 10 +35 +44 очень
жарко
990.2 842.2
15 13.08 ЮЗ 3 12 км ясно +35.4 +1.1 11 +32 +32 жарко 991.4 841.4 +39.0
18 13.08 СЗ 2 10 км ясно +29.6 +4.9 21 +28 +28 жарко 991.2 842.0
21 13.08 штиль 0 10 км ясно +25.8 +5.0 26 +25 +25 комфорт 992.2 842.8
00 14.08 штиль 0 10 км ясно +23.0 +4.2 29 +23 +23 комфорт 993.2 843.5
03 14.08 штиль 0 12 км ясно +22.6 +5.7 33 +23 +24 комфорт 995.6 844.8 +19.4
06 14.08 нст 1 12 км ясно +34.0 +0.6 12 +31 +47 жарко 995.5 845.8
09 14.08 Ю 2 12 км ясно +37.2 -3.8 7 +33 +53 опасность
солнечного
удара
994.3 844.5
12 14.08 З 2 12 км ясно +39.8 -6.9 5 +35 +44 очень
жарко
992.4 842.8
15 14.08 штиль 0 15 км ясно +36.4 -4.3 7 +32 +32 жарко 992.9 842.4 +40.0
18 14.08 СЗ 3 7000 м ясно +32.0 +1.2 14 +29 +29 жарко 992.9 844.1
21 14.08 СЗ 2 7000 м мгла ясно +29.6 +2.3 17 +27 +27 жарко 993.1 844.5
00 15.08 З 2 7000 м мгла ясно +25.4 +4.3 26 +25 +25 комфорт 993.3 844.4

 

Местоположение метеостанции Shiraz (Иран): широта 29.53 долгота 52.53 высота над уровнем моря 1481 м.

В архиве по умолчанию представлена погода в Shiraz за последнюю неделю. Архивные данные за месяц целиком и за предыдущие месяцы, начиная с января 2011 года, Вы можете получить, выбрав интересующий диапазон дат из раскрывающегося списка и нажав кнопку "Ввод!".


*Определитесь, кто Вы:
робот инопланетянин человек

Внимание! Время в таблицах - всемирное. Для получения местного времени необходимо прибавить поправку, которая в Shiraz равна 3.5 ч.

Смотрите также архив погоды в соседних городах и на ближайших метеорологических станциях:

Погода в Fasa (Иран) (128 км)
Погода в Yasuj (Иран) (156 км)
Погода в Bushehr (Иран) (175 км)
Погода в Bushehr Airport (Иран) (176 км)
Погода в Abadeh (Иран) (184 км)
Погода в Gach Saran (Иран) (197 км)
Погода в Bandar Deyr (Иран) (198 км)
Погода в Khark (Иран) (216 км)
Погода в Omidieh (Иран) (308 км)
Погода в Sirjan (Иран) (309 км)

Пояснения к столбцам:

Ветер - указаны скорость ветра в м/с - средняя за 10 мин, порывы в срок и между сроками (в фигурных скобках) и направление, откуда дует ветер: С - северный, СВ - северо-восточный, В - восточный, ЮВ - юго-восточный, Ю - южный, ЮЗ - юго-западный, З - западный, СЗ - северо-западный.
Видимость - горизонтальная дальность видимости в метрах или километрах. При видимости от 1 до 10 км при отсутствии осадков обычно наблюдается дымка, при ухудшении видимости до 1 км и менее - туман. В сухую погоду видимость может ухудшаться дымом, пылью или мглою.
Явления - указаны атмосферные явления, наблюдавшиеся в срок или в последний час перед сроком; фигурными скобками обозначены явления, наблюдавшиеся между сроками (за 1-3 часа до срока); квадратными скобками обозначены град или гололедные отложения с указанием их диаметра в мм.
Облачность - указаны через наклонную черту общая и нижняя облачность в баллах и высота нижней границы облаков в метрах; квадратными скобками обозначены формы облаков: Ci - перистые, Cs - перисто-слоистые, Cc - перисто-кучевые, Ac - высококучевые, As - высокослоистые, Sc - слоисто-кучевые, Ns - слоисто-дождевые, Cu - кучевые, Cb - кучево-дождевые. Подробнее классификацию облаков см. в Атласе облаков (PDF).
T - Температура воздуха - температура, измеренная на высоте 2 м над землей.
Td - Температура точки росы - температура, при понижении до которой содержащийся в воздухе водяной пар достигнет насыщения.
f - Относительная влажность воздуха - влажноcть воздуха, измеренная на высоте 2 м над землей.
Te - Эффективная температура - температура, которую ощущает одетый по сезону человек в тени. Характеристика душности погоды. При расчете учитывается влияние влажности воздуха и скорости ветра на теплоощущения человека.
Tes - Эффективная температура на солнце - температура, которую ощущает человек, с поправкой на солнечный нагрев. Характеристика знойности погоды. Зависит от высоты солнца над горизонтом, облачности и скорости ветра. Ночью, в пасмурную погоду, а также при ветре 12 м/с и более поправка равна нулю.
P - Атмосферное давление - приведенное к уровню моря атмосферное давление.
Po - Атмосферное давление - измеренное на уровне метеостанции атмосферное давление.
Tmin - Минимальная температура - минимум температуры воздуха на высоте 2 м над землей.
Tmax - Максимальная температура - максимум температуры воздуха на высоте 2 м над землей.
R - Количество осадков - Количество выпавших осадков за период времени, мм. При наведении курсора мыши на число - период времени, за который выпало указанное количество осадков.
R24 - Количество осадков - Количество выпавших осадков за 24 часа, мм.
S - Снежный покров - Высота снежного покрова, см. При наведении курсора мыши на число - состояние снежного покрова и степень покрытия местности в баллах.